Slayton, MN

10:16 AM CDT on August 24, 2016 (GMT -0500)
Slayton

Weather History for KDVP - August, 2014

Change the Weather History Date:

Sunday, August 17, 2014

  Actual Average (KOTG) Record (KOTG)
Temperature  
Mean Temperature 74 °F -  
Max Temperature 85 °F 74 °F 98 °F (1988)
Min Temperature 66 °F 56 °F 43 °F (1981)
Cooling Degree Days 10    
Growing Degree Days 24 (Base 50)    
Moisture  
Dew Point 68 °F    
Average Humidity 84    
Maximum Humidity 99    
Minimum Humidity 54    
Precipitation  
Precipitation 0.00 in - - ()
Sea Level Pressure  
Sea Level Pressure 29.93 in    
Wind  
Wind Speed 1 mph (WSW)    
Max Wind Speed 14 mph    
Max Gust Speed 17 mph    
Visibility 9 miles    
Events      
Averages and records for this station are not official NWS values.
T = Trace of Precipitation, MM = Missing Value Source: NWS Daily Summary

Daily Weather History Graph

Daily Weather History Graph

Search for Another Location

Airport or City:

Trip Planner

Search our weather history database for the weather conditions in past years. The results will help you decide how hot, cold, wet, or windy it might be!

Date:

Astronomy

Aug. 17, 2014 Rise Set
Actual Time 6:29 AM CDT 8:24 PM CDT
Civil Twilight 5:58 AM CDT 8:55 PM CDT
Nautical Twilight 5:20 AM CDT 9:33 PM CDT
Astronomical Twilight 4:38 AM CDT 10:14 PM CDT
Moon No Moon Rise 2:32 PM CDT (8/17)
Length of Visible Light 14h 56m
Length of Day
13h 54m
Waning Gibbous, 48% of the Moon is Illuminated
Aug 17
Waning Gibbous
Aug 25
New
Sep 2
First Quarter
Sep 8
Full
Sep 15
Last Quarter

Hourly Weather History & Observations

Time (CDT) Temp. Heat Index Dew Point Humidity Pressure Visibility Wind Dir Wind Speed Gust Speed Precip Events Conditions
12:14 AM 67.5 °F - 66.6 °F 97% 29.95 in 7.0 mi Calm Calm - N/A   Scattered Clouds
12:34 AM 67.3 °F - 66.7 °F 98% 29.95 in 5.0 mi Calm Calm - N/A   Scattered Clouds
12:54 AM 66.6 °F - 66.2 °F 99% 29.94 in 5.0 mi Calm Calm - N/A   Clear
1:13 AM 67.3 °F - 67.1 °F 99% 29.94 in 7.0 mi Calm Calm - N/A   Clear
1:34 AM 67.1 °F - 66.4 °F 98% 29.95 in 7.0 mi Calm Calm - N/A   Clear
2:14 AM 68.2 °F - 67.3 °F 97% 29.95 in 7.0 mi Calm Calm - N/A   Overcast
2:34 AM 67.8 °F - 66.7 °F 96% 29.95 in 7.0 mi Calm Calm - N/A   Scattered Clouds
2:54 AM 68.0 °F - 67.1 °F 97% 29.94 in 7.0 mi Calm Calm - N/A   Scattered Clouds
3:13 AM 67.5 °F - 66.6 °F 97% 29.95 in 7.0 mi Calm Calm - N/A   Clear
3:34 AM 68.0 °F - 67.1 °F 97% 29.95 in 7.0 mi Calm Calm - N/A   Mostly Cloudy
3:54 AM 68.2 °F - 67.3 °F 97% 29.94 in 7.0 mi Calm Calm - N/A   Scattered Clouds
4:13 AM 68.9 °F - 68.0 °F 97% 29.94 in 10.0 mi Calm Calm - N/A   Clear
4:34 AM 69.1 °F - 68.0 °F 96% 29.94 in 10.0 mi Calm Calm - N/A   Clear
4:54 AM 68.9 °F - 67.5 °F 95% 29.94 in 10.0 mi Calm Calm - N/A   Clear
5:14 AM 68.0 °F - 67.1 °F 97% 29.95 in 7.0 mi Calm Calm - N/A   Clear
5:34 AM 67.6 °F - 66.7 °F 97% 29.94 in 10.0 mi Calm Calm - N/A   Clear
5:54 AM 67.3 °F - 66.6 °F 98% 29.94 in 7.0 mi Calm Calm - N/A   Clear
6:14 AM 67.5 °F - 66.7 °F 98% 29.94 in 7.0 mi Calm Calm - N/A   Clear
6:34 AM 67.5 °F - 66.7 °F 98% 29.95 in 7.0 mi Calm Calm - N/A   Clear
6:54 AM 68.0 °F - 66.7 °F 96% 29.95 in 7.0 mi Calm Calm - N/A   Clear
7:14 AM 68.0 °F - 66.7 °F 96% 29.95 in 7.0 mi Calm Calm - N/A   Clear
7:33 AM 68.2 °F - 67.1 °F 96% 29.95 in 7.0 mi Calm Calm - N/A   Clear
7:54 AM 69.4 °F - 68.0 °F 95% 29.95 in 7.0 mi Calm Calm - N/A   Scattered Clouds
8:14 AM 70.9 °F - 68.9 °F 93% 29.96 in 7.0 mi Calm Calm - N/A   Mostly Cloudy
8:33 AM 72.3 °F - 69.3 °F 90% 29.96 in 7.0 mi Calm Calm - N/A   Overcast
8:54 AM 72.5 °F - 69.1 °F 89% 29.95 in 7.0 mi South 3.5 mph - N/A   Mostly Cloudy
9:14 AM 72.9 °F - 69.3 °F 88% 29.95 in 7.0 mi SSW 11.5 mph - N/A   Scattered Clouds
9:34 AM 74.3 °F - 70.0 °F 86% 29.95 in 7.0 mi Calm Calm - N/A   Clear
9:54 AM 76.1 °F - 70.7 °F 83% 29.96 in 10.0 mi Calm Calm - N/A   Scattered Clouds
10:14 AM 75.2 °F - 70.3 °F 85% 29.98 in 10.0 mi Calm Calm - N/A   Mostly Cloudy
10:34 AM 75.6 °F - 70.7 °F 85% 29.98 in 7.0 mi Calm Calm - N/A   Overcast
10:54 AM 74.5 °F - 70.7 °F 88% 29.98 in 7.0 mi Calm Calm - N/A   Overcast
11:14 AM 74.8 °F - 70.7 °F 87% 29.97 in 7.0 mi Calm Calm - N/A   Overcast
11:34 AM 75.4 °F - 70.9 °F 86% 29.97 in 7.0 mi Calm Calm - N/A   Overcast
11:54 AM 76.1 °F - 70.7 °F 83% 29.96 in 10.0 mi Calm Calm - N/A   Overcast
12:13 PM 76.3 °F - 70.7 °F 83% 29.97 in 10.0 mi Calm Calm - N/A   Overcast
12:34 PM 76.1 °F - 70.7 °F 83% 29.97 in 10.0 mi Calm Calm - N/A   Overcast
12:54 PM 77.4 °F - 70.5 °F 79% 29.96 in 10.0 mi West 5.8 mph - N/A   Overcast
1:14 PM 76.3 °F - 70.0 °F 81% 29.95 in 10.0 mi West 4.6 mph - N/A   Overcast
1:34 PM 77.2 °F - 70.2 °F 79% 29.95 in 10.0 mi Calm Calm - N/A   Scattered Clouds
1:54 PM 79.3 °F - 69.6 °F 72% 29.95 in 10.0 mi Calm Calm - N/A   Clear
2:14 PM 80.6 °F 83.8 °F 69.4 °F 69% 29.94 in 10.0 mi Calm Calm - N/A   Scattered Clouds
2:34 PM 81.9 °F 84.2 °F 66.9 °F 60% 29.93 in 10.0 mi WSW 12.7 mph - N/A   Scattered Clouds
2:54 PM 82.6 °F 84.1 °F 64.4 °F 54% 29.93 in 10.0 mi SW 11.5 mph - N/A   Clear
3:14 PM 82.6 °F 84.7 °F 66.0 °F 57% 29.93 in 10.0 mi West 10.4 mph - N/A   Clear
3:34 PM 83.1 °F 85.4 °F 66.2 °F 57% 29.93 in 10.0 mi Calm Calm - N/A   Scattered Clouds
3:54 PM 83.1 °F 85.7 °F 66.9 °F 58% 29.93 in 10.0 mi Calm Calm - N/A   Scattered Clouds
4:14 PM 83.1 °F 86.3 °F 68.5 °F 61% 29.92 in 10.0 mi Calm Calm - N/A   Scattered Clouds
4:34 PM 81.1 °F 84.2 °F 68.7 °F 66% 29.92 in 10.0 mi Calm Calm - N/A   Clear
4:54 PM 82.0 °F 85.5 °F 69.1 °F 65% 29.92 in 10.0 mi Calm Calm - N/A   Scattered Clouds
5:14 PM 82.9 °F 85.6 °F 67.3 °F 59% 29.90 in 10.0 mi West 11.5 mph 17.3 mph N/A   Mostly Cloudy
5:33 PM 83.8 °F 86.7 °F 67.8 °F 58% 29.90 in 10.0 mi West 13.8 mph - N/A   Scattered Clouds
5:54 PM 82.9 °F 86.0 °F 68.2 °F 61% 29.89 in 10.0 mi WNW 10.4 mph - N/A   Clear
6:14 PM 82.0 °F 84.9 °F 67.8 °F 62% 29.88 in 10.0 mi Calm Calm - N/A   Clear
6:34 PM 82.2 °F 85.1 °F 68.0 °F 62% 29.88 in 10.0 mi Calm Calm - N/A   Clear
6:54 PM 80.8 °F 83.8 °F 69.1 °F 67% 29.87 in 10.0 mi Calm Calm - N/A   Clear
7:14 PM 80.1 °F 82.9 °F 69.1 °F 69% 29.88 in 10.0 mi Calm Calm - N/A   Clear
7:34 PM 79.0 °F - 70.2 °F 74% 29.89 in 10.0 mi Calm Calm - N/A   Clear
7:54 PM 77.0 °F - 70.2 °F 79% 29.89 in 10.0 mi Calm Calm - N/A   Clear
8:14 PM 74.3 °F - 70.2 °F 87% 29.89 in 10.0 mi Calm Calm - N/A   Clear
8:34 PM 74.5 °F - 69.4 °F 84% 29.90 in 10.0 mi Calm Calm - N/A   Clear
8:54 PM 73.8 °F - 69.3 °F 86% 29.91 in 10.0 mi Calm Calm - N/A   Clear
9:14 PM 72.9 °F - 69.1 °F 88% 29.91 in 10.0 mi Calm Calm - N/A   Clear
9:34 PM 72.5 °F - 68.9 °F 88% 29.92 in 10.0 mi Calm Calm - N/A   Clear
9:53 PM 72.1 °F - 68.9 °F 89% 29.92 in 10.0 mi Calm Calm - N/A   Clear
10:14 PM 71.8 °F - 68.5 °F 89% 29.91 in 10.0 mi Calm Calm - N/A   Clear
10:34 PM 71.6 °F - 68.2 °F 89% 29.90 in 10.0 mi Calm Calm - N/A   Clear
10:54 PM 71.6 °F - 68.0 °F 88% 29.90 in 10.0 mi Calm Calm - N/A   Clear
11:14 PM 71.6 °F - 67.8 °F 88% 29.89 in 10.0 mi Calm Calm - N/A   Clear
11:34 PM 71.6 °F - 67.6 °F 87% 29.89 in 10.0 mi Calm Calm - N/A   Clear
11:54 PM 71.8 °F - 67.5 °F 86% 29.90 in 10.0 mi Calm Calm - N/A   Scattered Clouds